{"data":{"norad_id":63437,"intl_designator":"2025-069E","name":"STARLINK-33726","alt_names":[],"object_type":"PAYLOAD","status":"ACTIVE","operator":null,"country":"US","launch_date":"2025-04-04","launch_site_code":"AFWTR","launch_vehicle":null,"mission":null,"orbit_class":"UNKNOWN","rcs_meters":null,"size_class":null,"mass_kg":null,"dimensions":null,"purposes":["comms"],"wikipedia_slug":null,"has_3d_model":false,"image_url":null,"decayed_at":null,"tle_current":{"epoch":"2026-09-20T22:00:03.000096Z","epoch_age_seconds":119746,"freshness":"FRESH","line1":"1 63437U 25069E   26263.91670139  .00042683  00000+0  12277-2 0  9993","line2":"2 63437  53.1606 297.6673 0001570  63.1311  77.6909 15.35396047  5921","mean_motion":15.35396047,"eccentricity":0.000157,"inclination_deg":53.1606,"raan_deg":297.6673,"arg_perigee_deg":63.1311,"mean_anomaly_deg":77.6909,"bstar":0.0012277,"rev_number":592,"period_min":93.786876865653,"perigee_km":458.67083178795,"apogee_km":460.817926541,"semimajor_km":6837.8813791645,"source":"CELESTRAK","updated_at":"2026-09-21T09:00:34.984532Z"}}}